• în România
  • Lista ţărilor
  • Pe 7 zile
  • Temperatura apei
  • Hartă satelitară
  • Meteo pe hartă
  • Widget-uri
  • user-avatar
    Intrare

    Meteo pe oră la Rechytsa

    Astăzi, 21 Iunie, Joi

    Timp Temperatura Precipitaţii Vânt Presiune Umiditate
    00:00 +17°C° 0 mm 2 m/s 752 mmHg 81%
    01:00 +18°C° 0 mm 1 m/s 752 mmHg 84%
    02:00 +16°C° 0 mm 1 m/s 751 mmHg 86%
    03:00 +18°C° 0 mm 1 m/s 752 mmHg 86%
    04:00 +18°C° 0 mm 1 m/s 752 mmHg 86%
    05:00 +18°C° 0 mm 1 m/s 752 mmHg 86%
    06:00 +20°C° 0 mm 1 m/s 752 mmHg 79%
    07:00 +22°C° 0 mm 1 m/s 752 mmHg 72%
    08:00 +24°C° 0 mm 1 m/s 752 mmHg 64%
    09:00 +25°C° 0 mm 1 m/s 751 mmHg 58%
    10:00 +26°C° 0 mm 2 m/s 751 mmHg 53%
    11:00 +28°C° 0 mm 2 m/s 751 mmHg 48%
    12:00 +28°C° 0 mm 2 m/s 750 mmHg 47%
    13:00 +29°C° 0 mm 2 m/s 750 mmHg 45%
    14:00 +30°C° 0 mm 2 m/s 749 mmHg 44%
    15:00 +29°C° 0 mm 2 m/s 749 mmHg 46%
    16:00 +29°C° 0 mm 2 m/s 748 mmHg 49%
    17:00 +29°C° 0 mm 2 m/s 748 mmHg 51%
    18:00 +28°C° 0 mm 2 m/s 748 mmHg 57%
    19:00 +26°C° 0 mm 2 m/s 747 mmHg 63%
    20:00 +25°C° 0 mm 2 m/s 747 mmHg 69%
    21:00 +24°C° 0 mm 3 m/s 747 mmHg 71%
    22:00 +22°C° 0 mm 3 m/s 747 mmHg 74%
    23:00 +22°C° 0 mm 3 m/s 746 mmHg 77%

    Mâine, 22 Iunie, Vineri

    Timp Temperatura Precipitaţii Vânt Presiune Umiditate
    00:00 +21°C° 0 mm 4 m/s 746 mmHg 78%
    01:00 +21°C° 0 mm 4 m/s 746 mmHg 80%
    02:00 +21°C° 0 mm 4 m/s 745 mmHg 82%
    03:00 +21°C° 0 mm 4 m/s 745 mmHg 83%
    04:00 +21°C° 0 mm 4 m/s 745 mmHg 84%
    05:00 +21°C° 0 mm 5 m/s 744 mmHg 84%
    06:00 +22°C° 0,1 mm 5 m/s 744 mmHg 81%
    07:00 +23°C° 0,1 mm 5 m/s 744 mmHg 77%
    08:00 +25°C° 0,1 mm 5 m/s 745 mmHg 74%
    09:00 +25°C° 0,9 mm 5 m/s 745 mmHg 77%
    10:00 +24°C° 0,9 mm 6 m/s 745 mmHg 79%
    11:00 +23°C° 0,9 mm 6 m/s 745 mmHg 82%
    12:00 +21°C° 0,8 mm 5 m/s 746 mmHg 84%
    13:00 +19°C° 0,8 mm 5 m/s 746 mmHg 86%
    14:00 +17°C° 0,8 mm 4 m/s 746 mmHg 87%
    15:00 +17°C° 0,1 mm 4 m/s 747 mmHg 83%
    16:00 +17°C° 0,1 mm 4 m/s 747 mmHg 79%
    17:00 +17°C° 0,1 mm 3 m/s 747 mmHg 75%
    18:00 +17°C° 0 mm 3 m/s 747 mmHg 77%
    19:00 +16°C° 0 mm 2 m/s 747 mmHg 79%
    20:00 +16°C° 0 mm 2 m/s 748 mmHg 80%
    21:00 +15°C° 0 mm 2 m/s 748 mmHg 81%
    22:00 +15°C° 0 mm 2 m/s 748 mmHg 81%
    23:00 +15°C° 0 mm 2 m/s 748 mmHg 82%

    Poimâine, 23 Iunie, Sâmbătă

    Timp Temperatura Precipitaţii Vânt Presiune Umiditate
    00:00 +14°C° 0 mm 2 m/s 748 mmHg 81%
    01:00 +13°C° 0 mm 3 m/s 748 mmHg 80%
    02:00 +13°C° 0 mm 3 m/s 748 mmHg 79%
    03:00 +13°C° 0,1 mm 3 m/s 748 mmHg 78%
    04:00 +13°C° 0,1 mm 3 m/s 748 mmHg 77%
    05:00 +13°C° 0,1 mm 3 m/s 748 mmHg 76%
    06:00 +13°C° 0,7 mm 4 m/s 747 mmHg 81%
    07:00 +12°C° 0,7 mm 4 m/s 747 mmHg 85%
    08:00 +12°C° 0,7 mm 5 m/s 747 mmHg 90%
    09:00 +10°C° 0,9 mm 5 m/s 747 mmHg 91%
    10:00 +11°C° 0,9 mm 4 m/s 747 mmHg 91%
    11:00 +11°C° 0,9 mm 4 m/s 747 mmHg 92%
    12:00 +11°C° 1 mm 4 m/s 747 mmHg 91%
    13:00 +11°C° 1 mm 4 m/s 747 mmHg 91%
    14:00 +11°C° 1 mm 4 m/s 747 mmHg 91%
    15:00 +12°C° 0,1 mm 4 m/s 746 mmHg 87%
    16:00 +12°C° 0,1 mm 4 m/s 746 mmHg 83%
    17:00 +13°C° 0,1 mm 4 m/s 746 mmHg 80%
    18:00 +12°C° 0,2 mm 3 m/s 746 mmHg 84%
    19:00 +12°C° 0,2 mm 3 m/s 746 mmHg 88%
    20:00 +12°C° 0,2 mm 2 m/s 746 mmHg 92%
    21:00 +12°C° 0,4 mm 2 m/s 746 mmHg 93%
    22:00 +11°C° 0,4 mm 3 m/s 746 mmHg 94%
    23:00 +11°C° 0,4 mm 3 m/s 746 mmHg 95%

    24 Iunie, Duminică

    Timp Temperatura Precipitaţii Vânt Presiune Umiditate
    00:00 +11°C° 0,8 mm 3 m/s 746 mmHg 96%
    01:00 +10°C° 0,8 mm 2 m/s 746 mmHg 96%
    02:00 +10°C° 0,8 mm 2 m/s 746 mmHg 96%
    03:00 +10°C° 0,2 mm 2 m/s 746 mmHg 96%
    04:00 +10°C° 0,2 mm 2 m/s 746 mmHg 96%
    05:00 +10°C° 0,2 mm 3 m/s 746 mmHg 96%
    06:00 +12°C° 0 mm 3 m/s 746 mmHg 92%
    07:00 +13°C° 0 mm 3 m/s 747 mmHg 87%
    08:00 +15°C° 0 mm 4 m/s 747 mmHg 83%
    09:00 +17°C° 0,3 mm 4 m/s 747 mmHg 77%
    10:00 +18°C° 0,3 mm 4 m/s 747 mmHg 71%
    11:00 +19°C° 0,3 mm 4 m/s 748 mmHg 65%
    12:00 +20°C° 0,5 mm 4 m/s 748 mmHg 65%
    13:00 +20°C° 0,5 mm 4 m/s 748 mmHg 64%
    14:00 +20°C° 0,5 mm 4 m/s 748 mmHg 64%
    15:00 +20°C° 0,1 mm 4 m/s 748 mmHg 62%
    16:00 +20°C° 0,1 mm 3 m/s 748 mmHg 60%
    17:00 +20°C° 0,1 mm 3 m/s 749 mmHg 59%
    18:00 +19°C° 0 mm 3 m/s 749 mmHg 65%
    19:00 +17°C° 0 mm 2 m/s 749 mmHg 72%
    20:00 +16°C° 0 mm 2 m/s 750 mmHg 79%
    21:00 +15°C° 0 mm 2 m/s 750 mmHg 82%
    22:00 +14°C° 0 mm 2 m/s 750 mmHg 86%
    23:00 +13°C° 0 mm 2 m/s 751 mmHg 89%

    25 Iunie, Luni

    Timp Temperatura Precipitaţii Vânt Presiune Umiditate
    00:00 +13°C° 0 mm 2 m/s 751 mmHg 90%
    01:00 +12°C° 0 mm 2 m/s 751 mmHg 91%
    02:00 +12°C° 0 mm 2 m/s 751 mmHg 92%
    03:00 +12°C° 0 mm 2 m/s 752 mmHg 92%
    04:00 +12°C° 0 mm 2 m/s 752 mmHg 91%
    05:00 +12°C° 0 mm 2 m/s 752 mmHg 90%
    06:00 +14°C° 0 mm 2 m/s 752 mmHg 83%
    07:00 +16°C° 0 mm 2 m/s 753 mmHg 75%
    08:00 +18°C° 0 mm 2 m/s 753 mmHg 68%
    09:00 +19°C° 0 mm 2 m/s 753 mmHg 63%
    10:00 +20°C° 0 mm 3 m/s 753 mmHg 58%
    11:00 +22°C° 0 mm 3 m/s 753 mmHg 53%
    12:00 +22°C° 0,1 mm 3 m/s 753 mmHg 52%
    13:00 +22°C° 0,1 mm 3 m/s 753 mmHg 51%
    14:00 +24°C° 0,1 mm 3 m/s 753 mmHg 50%
    15:00 +24°C° 0,1 mm 3 m/s 753 mmHg 51%
    16:00 +24°C° 0,1 mm 3 m/s 753 mmHg 52%
    17:00 +24°C° 0,1 mm 2 m/s 753 mmHg 53%
    18:00 +21°C° 0 mm 2 m/s 753 mmHg 59%
    19:00 +20°C° 0 mm 1 m/s 753 mmHg 65%
    20:00 +19°C° 0 mm 1 m/s 753 mmHg 71%
    21:00 +18°C° 0 mm 1 m/s 753 mmHg 74%
    22:00 +16°C° 0 mm 1 m/s 754 mmHg 77%
    23:00 +15°C° 0 mm 1 m/s 754 mmHg 79%

    26 Iunie, Marţi

    Timp Temperatura Precipitaţii Vânt Presiune Umiditate
    00:00 +14°C° 0 mm 1 m/s 754 mmHg 81%
    01:00 +14°C° 0 mm 1 m/s 754 mmHg 83%
    02:00 +13°C° 0 mm 1 m/s 754 mmHg 85%
    03:00 +13°C° 0 mm 0 m/s 754 mmHg 84%
    04:00 +13°C° 0 mm 0 m/s 754 mmHg 83%
    05:00 +13°C° 0 mm 0 m/s 754 mmHg 83%
    06:00 +15°C° 0 mm 0 m/s 754 mmHg 76%
    07:00 +20°C° 0 mm 1 m/s 755 mmHg 69%
    08:00 +22°C° 0 mm 1 m/s 755 mmHg 63%
    09:00 +23°C° 0,1 mm 1 m/s 755 mmHg 59%
    10:00 +24°C° 0,1 mm 2 m/s 755 mmHg 56%
    11:00 +25°C° 0,1 mm 2 m/s 754 mmHg 52%
    12:00 +25°C° 0,5 mm 2 m/s 754 mmHg 55%
    13:00 +25°C° 0,5 mm 2 m/s 754 mmHg 57%
    14:00 +25°C° 0,5 mm 2 m/s 754 mmHg 59%
    15:00 +25°C° 0,5 mm 2 m/s 754 mmHg 61%
    16:00 +25°C° 0,5 mm 2 m/s 754 mmHg 63%
    17:00 +24°C° 0,5 mm 2 m/s 754 mmHg 65%
    18:00 +23°C° 0,2 mm 2 m/s 754 mmHg 70%
    19:00 +21°C° 0,2 mm 2 m/s 754 mmHg 76%
    20:00 +19°C° 0,2 mm 2 m/s 754 mmHg 81%
    21:00 +18°C° 0 mm 2 m/s 754 mmHg 84%
    22:00 +18°C° 0 mm 2 m/s 754 mmHg 86%
    23:00 +17°C° 0 mm 2 m/s 754 mmHg 88%
    Arată mai mult